| time (UTC) | temp F | wind direction | speed MPH | gust MPH | rain 1hr in | rain 24hr in | rain mn in | humidity % | barometer mb |
| 20260902023049 | 48 | 97 | 0.0 | 0.0 | 0.00 | 0.00 | 0.00 | 91 | 1020.3 |
| 20260902021549 | 49 | 97 | 0.0 | 1.0 | 0.00 | 0.00 | 0.00 | 91 | 1020.2 |
| 20260902020045 | 49 | 97 | 0.0 | 2.0 | 0.00 | 0.00 | 0.00 | 91 | 1020.1 |
| 20260902014542 | 50 | 97 | 0.0 | 1.0 | 0.00 | 0.00 | 0.00 | 91 | 1020.0 |
| 20260902013040 | 51 | 97 | 0.0 | 1.0 | 0.00 | 0.00 | 0.00 | 91 | 1020.1 |
| 20260902011538 | 52 | 97 | 0.0 | 1.0 | 0.00 | 0.00 | 0.00 | 91 | 1020.1 |
| 20260902010035 | 52 | 97 | 0.0 | 1.0 | 0.00 | 0.00 | 0.00 | 91 | 1020.1 |
| 20260902004533 | 54 | 98 | 0.0 | 1.0 | 0.00 | 0.00 | 0.00 | 91 | 1019.9 |
| 20260902003031 | 54 | 97 | 0.0 | 1.0 | 0.00 | 0.00 | 0.00 | 91 | 1019.8 |
| 20260902001532 | 55 | 97 | 0.0 | 1.0 | 0.00 | 0.00 | 0.00 | 91 | 1019.8 |
| 20260902000025 | 55 | 98 | 0.0 | 2.0 | 0.00 | 0.00 | 0.00 | 91 | 1019.7 |
| 20260901234522 | 55 | 82 | 0.0 | 2.0 | 0.00 | 0.00 | 0.00 | 90 | 1019.6 |
| 20260901233028 | 55 | 79 | 0.0 | 0.0 | 0.00 | 0.00 | 0.00 | 89 | 1019.3 |
| 20260901231516 | 55 | 79 | 0.0 | 0.0 | 0.00 | 0.00 | 0.00 | 89 | 1019.0 |
| 20260901230013 | 56 | 79 | 0.0 | 0.0 | 0.00 | 0.00 | 0.00 | 89 | 1019.0 |
| 20260901224529 | 57 | 79 | 0.0 | 2.0 | 0.00 | 0.00 | 0.00 | 88 | 1018.8 |
| 20260901223008 | 58 | 80 | 1.0 | 2.0 | 0.00 | 0.00 | 0.00 | 88 | 1018.8 |
| 20260901221506 | 59 | 76 | 0.0 | 2.0 | 0.00 | 0.00 | 0.00 | 87 | 1018.6 |
| 20260901220003 | 60 | 76 | 0.0 | 2.0 | 0.00 | 0.00 | 0.00 | 86 | 1018.5 |
| 20260901214600 | 61 | 76 | 0.0 | 4.0 | 0.00 | 0.00 | 0.00 | 85 | 1018.3 |
| 20260901213057 | 62 | 180 | 0.0 | 2.0 | 0.00 | 0.00 | 0.00 | 85 | 1018.2 |
| 20260901211555 | 62 | 180 | 1.0 | 2.0 | 0.00 | 0.00 | 0.00 | 84 | 1018.1 |
| 20260901210052 | 63 | 181 | 1.0 | 4.0 | 0.00 | 0.00 | 0.00 | 83 | 1017.9 |
| 20260901204549 | 63 | 193 | 1.0 | 6.0 | 0.00 | 0.00 | 0.00 | 82 | 1017.9 |
| 20260901203050 | 63 | 211 | 1.0 | 7.0 | 0.00 | 0.00 | 0.00 | 81 | 1017.8 |
| 20260901201545 | 63 | 195 | 3.0 | 5.0 | 0.00 | 0.00 | 0.00 | 81 | 1017.8 |
| 20260901200100 | 63 | 230 | 2.0 | 5.0 | 0.00 | 0.00 | 0.00 | 82 | 1017.7 |
| 20260901194551 | 63 | 232 | 1.0 | 4.0 | 0.00 | 0.00 | 0.00 | 80 | 1017.6 |
| 20260901193037 | 65 | 198 | 1.0 | 7.0 | 0.00 | 0.00 | 0.00 | 79 | 1017.5 |
| 20260901191540 | 67 | 220 | 1.0 | 9.0 | 0.00 | 0.00 | 0.00 | 76 | 1017.3 |
| 20260901190039 | 67 | 52 | 3.0 | 6.0 | 0.00 | 0.00 | 0.00 | 71 | 1017.1 |
| 20260901184533 | 67 | 168 | 2.0 | 10.0 | 0.00 | 0.00 | 0.00 | 72 | 1017.1 |
| 20260901183026 | 67 | 113 | 1.0 | 10.0 | 0.00 | 0.00 | 0.00 | 70 | 1017.0 |
| 20260901181528 | 68 | 44 | 3.0 | 7.0 | 0.00 | 0.00 | 0.00 | 74 | 1016.9 |
| 20260901180019 | 65 | 128 | 2.0 | 9.0 | 0.00 | 0.00 | 0.00 | 74 | 1016.9 |
| 20260901174522 | 66 | 28 | 2.0 | 11.0 | 0.00 | 0.00 | 0.00 | 74 | 1017.1 |
| 20260901173023 | 67 | 52 | 3.0 | 6.0 | 0.00 | 0.00 | 0.00 | 72 | 1017.1 |
| 20260901171515 | 67 | 338 | 5.0 | 11.0 | 0.00 | 0.00 | 0.00 | 73 | 1017.0 |
| 20260901170009 | 66 | 104 | 4.0 | 9.0 | 0.00 | 0.00 | 0.00 | 75 | 1016.9 |
| 20260901164506 | 65 | 55 | 3.0 | 15.0 | 0.00 | 0.00 | 0.00 | 75 | 1017.0 |
| 20260901163005 | 64 | 61 | 3.0 | 9.0 | 0.00 | 0.00 | 0.00 | 78 | 1017.0 |
| 20260901161501 | 63 | 113 | 4.0 | 9.0 | 0.00 | 0.00 | 0.00 | 80 | 1017.1 |
| 20260901160108 | 64 | 59 | 6.0 | 11.0 | 0.00 | 0.00 | 0.00 | 77 | 1017.0 |
| 20260901154557 | 64 | 85 | 4.0 | 9.0 | 0.00 | 0.00 | 0.00 | 76 | 1016.9 |
| 20260901153156 | 64 | 94 | 5.0 | 11.0 | 0.00 | 0.00 | 0.00 | 77 | 1017.0 |
| 20260901151557 | 65 | 42 | 8.0 | 18.0 | 0.00 | 0.00 | 0.00 | 76 | 1016.9 |
| 20260901150051 | 66 | 63 | 3.0 | 11.0 | 0.00 | 0.00 | 0.00 | 72 | 1016.8 |
| 20260901144550 | 65 | 67 | 3.0 | 6.0 | 0.00 | 0.00 | 0.00 | 73 | 1016.8 |
| 20260901143100 | 65 | 119 | 2.0 | 6.0 | 0.00 | 0.00 | 0.00 | 73 | 1016.9 |
| 20260901141544 | 65 | 94 | 1.0 | 4.0 | 0.00 | 0.00 | 0.00 | 73 | 1016.8 |
| 20260901140043 | 65 | 217 | 3.0 | 8.0 | 0.00 | 0.00 | 0.00 | 72 | 1016.7 |
| 20260901134539 | 67 | 63 | 5.0 | 11.0 | 0.00 | 0.00 | 0.00 | 70 | 1016.6 |
| 20260901133035 | 66 | 182 | 1.0 | 4.0 | 0.00 | 0.00 | 0.00 | 76 | 1016.6 |
| 20260901131534 | 66 | 176 | 1.0 | 3.0 | 0.00 | 0.00 | 0.00 | 77 | 1016.6 |
| 20260901130027 | 64 | 78 | 0.0 | 4.0 | 0.00 | 0.00 | 0.00 | 83 | 1016.6 |
| 20260901124522 | 63 | 91 | 0.0 | 2.0 | 0.00 | 0.00 | 0.00 | 85 | 1016.6 |
| 20260901123025 | 60 | 92 | 0.0 | 3.0 | 0.00 | 0.00 | 0.00 | 87 | 1016.5 |
| 20260901121511 | 58 | 66 | 0.0 | 3.0 | 0.00 | 0.00 | 0.00 | 90 | 1016.7 |
| 20260901120005 | 57 | 66 | 1.0 | 2.0 | 0.00 | 0.00 | 0.00 | 93 | 1016.8 |
| 20260901114601 | 55 | 66 | 0.0 | 0.0 | 0.00 | 0.01 | 0.00 | 94 | 1016.7 |
| 20260901113104 | 54 | 30 | 0.0 | 0.0 | 0.00 | 0.01 | 0.00 | 94 | 1016.7 |
| 20260901111552 | 52 | 30 | 0.0 | 3.0 | 0.00 | 0.01 | 0.00 | 94 | 1016.7 |
| 20260901110049 | 50 | 30 | 2.0 | 3.0 | 0.00 | 0.01 | 0.00 | 94 | 1016.7 |
| 20260901104555 | 50 | 290 | 0.0 | 0.0 | 0.00 | 0.02 | 0.00 | 94 | 1016.6 |
| 20260901103042 | 49 | 290 | 0.0 | 0.0 | 0.00 | 0.02 | 0.00 | 94 | 1016.5 |
| 20260901101540 | 49 | 290 | 0.0 | 0.0 | 0.00 | 0.02 | 0.00 | 94 | 1016.5 |
| 20260901100046 | 47 | 290 | 0.0 | 0.0 | 0.00 | 0.02 | 0.00 | 94 | 1016.3 |
| 20260901094534 | 47 | 290 | 0.0 | 0.0 | 0.00 | 0.02 | 0.00 | 94 | 1016.2 |
| 20260901093031 | 47 | 290 | 0.0 | 0.0 | 0.00 | 0.02 | 0.00 | 93 | 1016.0 |
| 20260901091529 | 47 | 290 | 0.0 | 0.0 | 0.00 | 0.02 | 0.00 | 93 | 1015.9 |
| 20260901090024 | 48 | 290 | 0.0 | 0.0 | 0.00 | 0.02 | 0.00 | 93 | 1015.8 |
| 20260901084520 | 49 | 271 | 0.0 | 0.0 | 0.00 | 0.02 | 0.00 | 93 | 1015.7 |
| 20260901083020 | 50 | 271 | 0.0 | 0.0 | 0.00 | 0.02 | 0.00 | 93 | 1015.6 |
| 20260901081520 | 50 | 271 | 0.0 | 0.0 | 0.00 | 0.02 | 0.00 | 94 | 1015.5 |
| 20260901080014 | 50 | 271 | 0.0 | 0.0 | 0.00 | 0.02 | 0.00 | 94 | 1015.4 |
| 20260901074510 | 50 | 271 | 0.0 | 0.0 | 0.00 | 0.02 | 0.00 | 93 | 1015.3 |
| 20260901073009 | 51 | 271 | 0.0 | 0.0 | 0.00 | 0.02 | 0.00 | 94 | 1015.2 |
| 20260901071513 | 52 | 271 | 0.0 | 0.0 | 0.00 | 0.02 | 0.00 | 94 | 1015.2 |
| 20260901070003 | 52 | 271 | 0.0 | 0.0 | 0.00 | 0.02 | 0.00 | 94 | 1015.3 |
| 20260901064559 | 51 | 271 | 0.0 | 0.0 | 0.00 | 0.02 | 0.00 | 94 | 1015.4 |
| 20260901063056 | 51 | 271 | 0.0 | 0.0 | 0.00 | 0.02 | 0.00 | 94 | 1015.3 |
| 20260901061555 | 51 | 271 | 0.0 | 0.0 | 0.00 | 0.02 | 0.00 | 93 | 1015.2 |
| 20260901060050 | 50 | 271 | 0.0 | 0.0 | 0.00 | 0.02 | 0.00 | 93 | 1015.0 |
| 20260901054549 | 50 | 271 | 0.0 | 0.0 | 0.00 | 0.03 | 0.00 | 93 | 1015.2 |
| 20260901053047 | 51 | 271 | 0.0 | 0.0 | 0.00 | 0.03 | 0.00 | 93 | 1014.9 |
| 20260901051545 | 51 | 271 | 0.0 | 0.0 | 0.00 | 0.03 | 0.00 | 93 | 1014.8 |
| 20260901050039 | 51 | 271 | 0.0 | 0.0 | 0.00 | 0.03 | 0.00 | 93 | 1014.8 |
| 20260901044547 | 51 | 271 | 0.0 | 0.0 | 0.00 | 0.04 | 0.00 | 93 | 1014.8 |
| 20260901043033 | 51 | 271 | 0.0 | 0.0 | 0.00 | 0.04 | 0.00 | 93 | 1014.8 |
| 20260901041530 | 51 | 271 | 0.0 | 0.0 | 0.00 | 0.04 | 0.00 | 93 | 1014.8 |
| 20260901040034 | 50 | 271 | 0.0 | 0.0 | 0.00 | 0.04 | 0.00 | 93 | 1014.6 |
| 20260901034522 | 50 | 271 | 0.0 | 0.0 | 0.00 | 0.04 | 0.00 | 92 | 1014.5 |
| 20260901033016 | 49 | 271 | 0.0 | 0.0 | 0.00 | 0.04 | 0.00 | 92 | 1014.4 |
| 20260901031513 | 49 | 271 | 0.0 | 0.0 | 0.00 | 0.04 | 0.00 | 91 | 1014.3 |
| 20260901030008 | 49 | 271 | 0.0 | 0.0 | 0.00 | 0.04 | 0.00 | 91 | 1014.3 |
| 20260901024514 | 49 | 271 | 0.0 | 0.0 | 0.00 | 0.22 | 0.04 | 91 | 1014.1 |